SCW067 EGPF-LFPG

Flight info

Callsign SCW067
Flight time N/A
Altitude 29000
Route NORBO T256 RIPNO DCT AKOMU DCT VAMEB UL612 EMKUK DCT SFD UM605 BIBAX
Aircraft RJ1H/M-SDFGIRWY/LB1

Departure

Time N/A
Airport Glasgow Airport (EGPF)

Arrival

Time 2026-05-05 13:00
Airport Charles de Gaulle International Airport (LFPG)
Time Latitude Longitude Altitude Speed Heading
2026-05-05 12:34 50.26858 0.74634 25551 ft 408 kts 142°
2026-05-05 12:34 50.24640 0.77407 25251 ft 406 kts 142°
2026-05-05 12:35 50.22423 0.80166 24960 ft 405 kts 142°
2026-05-05 12:35 50.20215 0.82915 24664 ft 409 kts 142°
2026-05-05 12:35 50.17995 0.85704 24381 ft 410 kts 141°
2026-05-05 12:35 50.15776 0.88487 24096 ft 409 kts 142°
2026-05-05 12:36 50.13549 0.91228 23812 ft 406 kts 142°
2026-05-05 12:36 50.11360 0.93925 23523 ft 396 kts 142°
2026-05-05 12:36 50.09221 0.96575 23197 ft 391 kts 142°
2026-05-05 12:36 50.07070 0.99180 22783 ft 394 kts 144°
2026-05-05 12:37 50.04786 1.01499 22296 ft 390 kts 150°
2026-05-05 12:37 50.02413 1.03521 21788 ft 388 kts 153°
2026-05-05 12:37 50.00009 1.05393 21294 ft 384 kts 153°
2026-05-05 12:37 49.97614 1.07168 20805 ft 384 kts 154°
2026-05-05 12:38 49.95189 1.08942 20324 ft 385 kts 154°
2026-05-05 12:38 49.92777 1.10697 19842 ft 383 kts 153°
2026-05-05 12:38 49.90401 1.12437 19388 ft 381 kts 153°
2026-05-05 12:38 49.87978 1.14216 18925 ft 380 kts 153°
2026-05-05 12:39 49.85639 1.15958 18481 ft 376 kts 152°
2026-05-05 12:39 49.83290 1.17710 18013 ft 375 kts 152°
2026-05-05 12:39 49.80946 1.19466 17485 ft 371 kts 152°
2026-05-05 12:39 49.78626 1.21198 16975 ft 370 kts 152°
2026-05-05 12:40 49.76319 1.22929 16473 ft 366 kts 153°
2026-05-05 12:40 49.74031 1.24646 15983 ft 365 kts 152°
2026-05-05 12:40 49.71757 1.26337 15509 ft 361 kts 152°
2026-05-05 12:40 49.69500 1.28009 15024 ft 359 kts 152°
2026-05-05 12:41 49.67253 1.29669 14556 ft 356 kts 152°
2026-05-05 12:41 49.65025 1.31314 14094 ft 354 kts 152°
2026-05-05 12:41 49.62812 1.32947 13634 ft 352 kts 151°
2026-05-05 12:41 49.60607 1.34575 13122 ft 349 kts 152°
2026-05-05 12:42 49.58426 1.36185 12620 ft 346 kts 152°
2026-05-05 12:42 49.56266 1.37782 12116 ft 343 kts 152°
2026-05-05 12:42 49.54127 1.39370 11640 ft 341 kts 152°
2026-05-05 12:42 49.52000 1.40961 11140 ft 339 kts 151°
2026-05-05 12:43 49.49882 1.42534 10689 ft 337 kts 152°
2026-05-05 12:43 49.47784 1.44086 10408 ft 329 kts 152°
2026-05-05 12:43 49.45755 1.45577 10299 ft 317 kts 152°
2026-05-05 12:43 49.43801 1.47006 10190 ft 306 kts 152°
2026-05-05 12:44 49.41936 1.48373 10084 ft 296 kts 152°
2026-05-05 12:44 49.40077 1.49726 9966 ft 287 kts 152°
2026-05-05 12:44 49.38316 1.51003 9819 ft 281 kts 152°
2026-05-05 12:44 49.36566 1.52285 9593 ft 277 kts 151°
2026-05-05 12:45 49.34850 1.53562 9368 ft 273 kts 150°
2026-05-05 12:45 49.33147 1.54830 9141 ft 270 kts 150°
2026-05-05 12:45 49.31464 1.56076 8930 ft 267 kts 150°
2026-05-05 12:45 49.30043 1.57774 8720 ft 256 kts 119°
2026-05-05 12:46 49.29524 1.60277 8545 ft 246 kts 92°
2026-05-05 12:46 49.29442 1.62891 8348 ft 246 kts 91°
2026-05-05 12:46 49.29380 1.65504 8149 ft 244 kts 90°
2026-05-05 12:46 49.29339 1.68097 7963 ft 242 kts 90°
2026-05-05 12:47 49.29298 1.70643 7887 ft 235 kts 90°
2026-05-05 12:47 49.29247 1.73120 7868 ft 232 kts 91°
2026-05-05 12:47 49.28835 1.75479 7833 ft 235 kts 122°
2026-05-05 12:47 49.27617 1.77206 7608 ft 243 kts 139°
2026-05-05 12:48 49.26272 1.78787 7369 ft 245 kts 139°
2026-05-05 12:48 49.24885 1.80383 7071 ft 253 kts 140°
2026-05-05 12:48 49.23444 1.81980 6794 ft 259 kts 141°
2026-05-05 12:48 49.21948 1.83586 6564 ft 265 kts 142°
2026-05-05 12:49 49.20412 1.85199 6328 ft 270 kts 141°
2026-05-05 12:49 49.18885 1.86873 6138 ft 270 kts 141°
2026-05-05 12:49 49.17363 1.88535 5874 ft 269 kts 141°
2026-05-05 12:49 49.15839 1.90190 5592 ft 268 kts 141°
2026-05-05 12:50 49.14312 1.91827 5309 ft 268 kts 141°
2026-05-05 12:50 49.12789 1.93454 5018 ft 267 kts 141°
2026-05-05 12:50 49.11268 1.95089 4746 ft 267 kts 141°
2026-05-05 12:50 49.09781 1.96666 4492 ft 249 kts 142°
2026-05-05 12:51 49.08368 1.98160 4217 ft 243 kts 141°
2026-05-05 12:51 49.06983 1.99622 4039 ft 241 kts 142°
2026-05-05 12:51 49.05620 2.01071 3998 ft 237 kts 141°
2026-05-05 12:51 49.04482 2.02816 3989 ft 230 kts 122°
2026-05-05 12:52 49.03571 2.04770 3984 ft 223 kts 122°
2026-05-05 12:52 49.02671 2.06648 4020 ft 212 kts 122°
2026-05-05 12:52 49.01838 2.08381 4084 ft 193 kts 121°
2026-05-05 12:52 49.01072 2.09968 4048 ft 186 kts 122°
2026-05-05 12:53 49.00382 2.11621 4015 ft 183 kts 108°
2026-05-05 12:53 49.00314 2.13473 4019 ft 176 kts 80°
2026-05-05 12:53 49.00430 2.15345 4014 ft 178 kts 82°
2026-05-05 12:53 49.00542 2.17219 4008 ft 178 kts 82°
2026-05-05 12:54 49.00779 2.20970 4008 ft 176 kts 83°
2026-05-05 12:54 49.00885 2.22758 3981 ft 162 kts 83°
2026-05-05 12:54 49.00979 2.24434 3958 ft 157 kts 82°
2026-05-05 12:55 49.01068 2.26117 3846 ft 166 kts 83°
2026-05-05 12:55 49.01150 2.27883 3588 ft 167 kts 83°
2026-05-05 12:55 49.01236 2.29632 3369 ft 164 kts 81°
2026-05-05 12:55 49.01326 2.31336 3183 ft 159 kts 82°
2026-05-05 12:56 49.01414 2.32977 2936 ft 151 kts 81°
2026-05-05 12:56 49.01501 2.34513 2759 ft 143 kts 81°
2026-05-05 12:56 49.01584 2.36016 2571 ft 142 kts 80°
2026-05-05 12:56 49.01673 2.37520 2394 ft 143 kts 81°
2026-05-05 12:57 49.01751 2.39009 2207 ft 138 kts 81°
2026-05-05 12:57 49.01819 2.40427 2011 ft 132 kts 80°
2026-05-05 12:57 49.01889 2.41799 1806 ft 129 kts 79°
2026-05-05 12:57 49.01961 2.43155 1614 ft 128 kts 79°
2026-05-05 12:58 49.02037 2.44497 1458 ft 128 kts 78°
2026-05-05 12:58 49.02121 2.45859 1301 ft 130 kts 78°
2026-05-05 12:58 49.02206 2.47245 1124 ft 133 kts 79°
2026-05-05 12:58 49.02273 2.48636 929 ft 133 kts 84°
2026-05-05 12:59 49.02348 2.50031 751 ft 131 kts 81°
2026-05-05 12:59 49.02382 2.51468 627 ft 140 kts 82°
2026-05-05 12:59 49.02513 2.52953 424 ft 138 kts 69°
2026-05-05 13:00 49.02646 2.55404 356 ft 83 kts 90°
2026-05-05 13:00 49.02673 2.55931 354 ft 32 kts 98°
2026-05-05 13:01 49.02521 2.56152 356 ft 0 kts 183°
2026-05-05 13:02 49.02459 2.56158 362 ft 17 kts 176°
2026-05-05 13:02 49.02341 2.56178 358 ft 16 kts 164°
2026-05-05 13:02 49.02260 2.56262 354 ft 13 kts 141°
2026-05-05 13:02 49.02172 2.56308 354 ft 14 kts 173°
2026-05-05 13:03 49.02082 2.56314 357 ft 12 kts 172°
2026-05-05 13:03 49.02009 2.56338 354 ft 10 kts 186°
2026-05-05 13:03 49.01942 2.56286 360 ft 12 kts 227°
2026-05-05 13:03 49.01915 2.56156 356 ft 13 kts 265°
2026-05-05 13:04 49.01908 2.55986 354 ft 20 kts 266°
2026-05-05 13:04 49.01894 2.55753 356 ft 23 kts 264°
2026-05-05 13:04 49.01882 2.55529 354 ft 20 kts 265°
2026-05-05 13:04 49.01872 2.55332 360 ft 18 kts 264°
2026-05-05 13:05 49.01862 2.55176 354 ft 10 kts 269°
2026-05-05 13:05 49.01856 2.55112 358 ft 9 kts 264°
2026-05-05 13:05 49.01856 2.55022 354 ft 9 kts 269°
2026-05-05 13:05 49.01833 2.54880 355 ft 13 kts 217°
2026-05-05 13:06 49.01771 2.54864 357 ft 15 kts 178°
2026-05-05 13:06 49.01662 2.54879 354 ft 15 kts 174°
2026-05-05 13:06 49.01557 2.54892 354 ft 15 kts 178°
2026-05-05 13:06 49.01458 2.54900 361 ft 14 kts 171°
2026-05-05 13:07 49.01363 2.54925 359 ft 14 kts 164°
2026-05-05 13:07 49.01275 2.54968 356 ft 13 kts 157°
2026-05-05 13:07 49.01191 2.55007 356 ft 13 kts 162°
2026-05-05 13:07 49.01102 2.55044 361 ft 13 kts 165°
2026-05-05 13:08 49.01007 2.55085 359 ft 15 kts 164°
2026-05-05 13:08 49.00911 2.55128 359 ft 14 kts 165°
2026-05-05 13:08 49.00818 2.55167 354 ft 14 kts 163°
2026-05-05 13:08 49.00734 2.55203 357 ft 11 kts 162°
2026-05-05 13:09 49.00687 2.55226 356 ft 4 kts 161°
2026-05-05 13:09 49.00664 2.55236 359 ft 3 kts 163°
2026-05-05 13:09 49.00646 2.55245 354 ft 3 kts 161°
2026-05-05 13:09 49.00616 2.55258 357 ft 6 kts 166°
2026-05-05 13:10 49.00564 2.55286 356 ft 9 kts 160°
2026-05-05 13:10 49.00501 2.55313 362 ft 12 kts 167°
2026-05-05 13:10 49.00403 2.55358 358 ft 18 kts 161°
2026-05-05 13:10 49.00289 2.55398 357 ft 16 kts 164°
2026-05-05 13:11 49.00188 2.55443 354 ft 15 kts 164°
2026-05-05 13:11 49.00093 2.55484 358 ft 14 kts 164°
2026-05-05 13:11 49.00008 2.55527 354 ft 12 kts 143°
2026-05-05 13:11 48.99941 2.55570 360 ft 11 kts 173°
2026-05-05 13:12 48.99871 2.55624 360 ft 12 kts 133°
2026-05-05 13:12 48.99835 2.55730 355 ft 11 kts 107°
2026-05-05 13:12 48.99815 2.55842 361 ft 11 kts 105°
2026-05-05 13:12 48.99799 2.55956 360 ft 11 kts 95°
2026-05-05 13:13 48.99802 2.56080 357 ft 12 kts 85°
2026-05-05 13:13 48.99808 2.56221 354 ft 15 kts 83°
2026-05-05 13:13 48.99819 2.56384 354 ft 15 kts 87°
2026-05-05 13:13 48.99828 2.56545 354 ft 15 kts 85°
2026-05-05 13:14 48.99836 2.56708 354 ft 16 kts 86°
2026-05-05 13:14 48.99846 2.56883 360 ft 16 kts 85°
2026-05-05 13:14 48.99890 2.56994 356 ft 12 kts 13°
2026-05-05 13:14 48.99967 2.56995 354 ft 11 kts 355°
2026-05-05 13:15 49.00040 2.56985 354 ft 10 kts 354°
2026-05-05 13:15 49.00107 2.56967 360 ft 9 kts 328°
2026-05-05 13:15 49.00151 2.56922 362 ft 7 kts 338°
2026-05-05 13:15 49.00190 2.56903 355 ft 5 kts 343°
2026-05-05 13:16 49.00199 2.56899 357 ft 0 kts 344°